WMT425 LIMJ-LATI

Flight info

Callsign WMT425
Flight time 1h 31m
Altitude 35000
Route GEN DCT KALMO DCT BEROK DCT DOBOG DCT OGAPU DCT IBENI DCT PETAK
Aircraft A321/M-SDE1E2E3FGIJ1J4RWXY/LB1

Departure

Time 2026-04-22 14:29
Airport Genoa Cristoforo Colombo Airport (LIMJ)

Arrival

Time 2026-04-22 16:00
Airport Tirana International Airport Mother Teresa (LATI)
Time Latitude Longitude Altitude Speed Heading
2026-04-22 12:56 44.41539 8.84950 20 ft 0 kts 105°
2026-04-22 14:12 44.41545 8.84926 23 ft 4 kts 112°
2026-04-22 14:12 44.41552 8.84904 21 ft 4 kts 127°
2026-04-22 14:12 44.41570 8.84883 21 ft 4 kts 180°
2026-04-22 14:12 44.41581 8.84888 20 ft 1 kts 230°
2026-04-22 14:13 44.41583 8.84891 20 ft 0 kts 230°
2026-04-22 14:15 44.41582 8.84890 20 ft 0 kts 230°
2026-04-22 14:15 44.41578 8.84884 20 ft 2 kts 230°
2026-04-22 14:16 44.41568 8.84866 23 ft 3 kts 231°
2026-04-22 14:16 44.41551 8.84836 20 ft 5 kts 232°
2026-04-22 14:16 44.41528 8.84794 20 ft 6 kts 232°
2026-04-22 14:16 44.41499 8.84742 20 ft 7 kts 232°
2026-04-22 14:17 44.41465 8.84680 20 ft 9 kts 232°
2026-04-22 14:17 44.41437 8.84645 20 ft 5 kts 196°
2026-04-22 14:17 44.41409 8.84668 20 ft 5 kts 127°
2026-04-22 14:17 44.41396 8.84722 21 ft 7 kts 105°
2026-04-22 14:18 44.41383 8.84792 22 ft 8 kts 105°
2026-04-22 14:18 44.41367 8.84871 22 ft 9 kts 105°
2026-04-22 14:18 44.41351 8.84963 20 ft 10 kts 104°
2026-04-22 14:18 44.41332 8.85065 20 ft 11 kts 105°
2026-04-22 14:19 44.41311 8.85175 21 ft 13 kts 105°
2026-04-22 14:19 44.41275 8.85265 20 ft 10 kts 145°
2026-04-22 14:19 44.41203 8.85271 20 ft 11 kts 194°
2026-04-22 14:19 44.41158 8.85255 20 ft 4 kts 194°
2026-04-22 14:20 44.41104 8.85234 19 ft 0 kts 195°
2026-04-22 14:24 44.41099 8.85232 19 ft 2 kts 195°
2026-04-22 14:24 44.41074 8.85219 20 ft 6 kts 207°
2026-04-22 14:24 44.41030 8.85177 18 ft 9 kts 197°
2026-04-22 14:25 44.40990 8.85233 17 ft 9 kts 106°
2026-04-22 14:25 44.40973 8.85320 18 ft 9 kts 105°
2026-04-22 14:25 44.40956 8.85404 19 ft 9 kts 105°
2026-04-22 14:25 44.40938 8.85495 21 ft 10 kts 105°
2026-04-22 14:26 44.40919 8.85591 22 ft 10 kts 105°
2026-04-22 14:26 44.40901 8.85687 22 ft 10 kts 105°
2026-04-22 14:26 44.40882 8.85786 22 ft 11 kts 105°
2026-04-22 14:26 44.40868 8.85901 22 ft 13 kts 89°
2026-04-22 14:27 44.40882 8.86014 23 ft 10 kts 83°
2026-04-22 14:27 44.40857 8.86068 23 ft 5 kts 182°
2026-04-22 14:27 44.40840 8.86020 22 ft 7 kts 265°
2026-04-22 14:27 44.40845 8.85980 22 ft 0 kts 284°
2026-04-22 14:28 44.40845 8.85976 22 ft 3 kts 284°
2026-04-22 14:28 44.40888 8.85754 22 ft 59 kts 285°
2026-04-22 14:28 44.41060 8.84876 20 ft 125 kts 285°
2026-04-22 14:29 44.41320 8.83543 126 ft 162 kts 289°
2026-04-22 14:29 44.41590 8.82048 794 ft 159 kts 290°
2026-04-22 14:29 44.41767 8.80485 1331 ft 170 kts 267°
2026-04-22 14:29 44.41207 8.78983 1768 ft 186 kts 226°
2026-04-22 14:30 44.40037 8.78131 2195 ft 197 kts 192°
2026-04-22 14:30 44.38663 8.78211 2583 ft 205 kts 162°
2026-04-22 14:30 44.37318 8.78918 3101 ft 208 kts 147°
2026-04-22 14:30 44.36058 8.79960 3567 ft 212 kts 150°
2026-04-22 14:31 44.34620 8.80520 4009 ft 216 kts 167°
2026-04-22 14:31 44.33153 8.80973 4418 ft 219 kts 167°
2026-04-22 14:31 44.31629 8.81342 4876 ft 222 kts 167°
2026-04-22 14:31 44.30106 8.81579 5480 ft 219 kts 176°
2026-04-22 14:32 44.28616 8.81541 6030 ft 218 kts 180°
2026-04-22 14:32 44.27094 8.81412 6544 ft 219 kts 182°
2026-04-22 14:32 44.25571 8.81267 7037 ft 219 kts 182°
2026-04-22 14:32 44.24041 8.81129 7474 ft 222 kts 182°
2026-04-22 14:33 44.22486 8.81000 7919 ft 224 kts 182°
2026-04-22 14:33 44.20920 8.80882 8358 ft 227 kts 182°
2026-04-22 14:33 44.19333 8.80768 8795 ft 230 kts 183°
2026-04-22 14:33 44.17723 8.80654 9221 ft 232 kts 183°
2026-04-22 14:34 44.16095 8.80518 9642 ft 235 kts 188°
2026-04-22 14:34 44.14630 8.79658 10023 ft 233 kts 224°
2026-04-22 14:34 44.13723 8.77845 10283 ft 232 kts 257°
2026-04-22 14:34 44.13601 8.75585 10417 ft 241 kts 277°
2026-04-22 14:35 44.13695 8.73163 10589 ft 259 kts 277°
2026-04-22 14:35 44.13832 8.70644 11206 ft 258 kts 286°
2026-04-22 14:35 44.14562 8.68427 11921 ft 252 kts 312°
2026-04-22 14:35 44.15970 8.67007 12616 ft 253 kts 339°
2026-04-22 14:36 44.17732 8.66687 13274 ft 260 kts 359°
2026-04-22 14:36 44.19527 8.66808 13932 ft 262 kts 358°
2026-04-22 14:36 44.21363 8.66961 14532 ft 266 kts
2026-04-22 14:36 44.23174 8.67695 15119 ft 277 kts 20°
2026-04-22 14:37 44.24805 8.69281 15482 ft 302 kts 39°
2026-04-22 14:37 44.26104 8.71756 15629 ft 329 kts 52°
2026-04-22 14:37 44.27357 8.74551 15775 ft 348 kts 51°
2026-04-22 14:37 44.28679 8.77499 15961 ft 365 kts 52°
2026-04-22 14:38 44.30038 8.80537 16429 ft 371 kts 52°
2026-04-22 14:38 44.31418 8.83624 16995 ft 375 kts 51°
2026-04-22 14:38 44.32796 8.86696 17563 ft 379 kts 51°
2026-04-22 14:38 44.34206 8.89840 18132 ft 383 kts 51°
2026-04-22 14:39 44.35629 8.93012 18647 ft 387 kts 51°
2026-04-22 14:39 44.37069 8.96222 19132 ft 391 kts 51°
2026-04-22 14:39 44.38528 8.99473 19610 ft 395 kts 50°
2026-04-22 14:40 44.40618 9.05272 20385 ft 413 kts 66°
2026-04-22 14:40 44.41285 9.10675 20986 ft 431 kts 83°
2026-04-22 14:40 44.41080 9.14829 21455 ft 442 kts 96°
2026-04-22 14:40 44.40309 9.19115 21895 ft 450 kts 103°
2026-04-22 14:41 44.39471 9.23298 22358 ft 455 kts 103°
2026-04-22 14:41 44.38607 9.27590 22829 ft 459 kts 103°
2026-04-22 14:41 44.37734 9.31921 23285 ft 464 kts 103°
2026-04-22 14:41 44.36855 9.36287 23785 ft 467 kts 103°
2026-04-22 14:42 44.35967 9.40685 24142 ft 472 kts 103°
2026-04-22 14:42 44.35071 9.45130 24491 ft 475 kts 103°
2026-04-22 14:42 44.34171 9.49594 24843 ft 479 kts 103°
2026-04-22 14:42 44.33257 9.54095 25187 ft 483 kts 103°
2026-04-22 14:43 44.32331 9.58626 25518 ft 486 kts 103°
2026-04-22 14:43 44.31412 9.63123 25873 ft 488 kts 103°
2026-04-22 14:43 44.30479 9.67706 26232 ft 491 kts 103°
2026-04-22 14:43 44.29549 9.72303 26605 ft 494 kts 104°
2026-04-22 14:44 44.28925 9.75377 26867 ft 495 kts 103°
2026-04-22 14:44 44.27976 9.80026 27269 ft 498 kts 103°
2026-04-22 14:44 44.27025 9.84690 27661 ft 501 kts 103°
2026-04-22 14:44 44.26063 9.89406 27898 ft 506 kts 103°
2026-04-22 14:45 44.25092 9.94148 28157 ft 509 kts 103°
2026-04-22 14:45 44.24111 9.98909 28479 ft 512 kts 104°
2026-04-22 14:45 44.23131 10.03644 28795 ft 514 kts 104°
2026-04-22 14:45 44.22131 10.08461 29101 ft 517 kts 104°
2026-04-22 14:46 44.21128 10.13290 29433 ft 519 kts 104°
2026-04-22 14:46 44.20120 10.18139 29708 ft 522 kts 104°
2026-04-22 14:46 44.19103 10.23021 30034 ft 525 kts 104°
2026-04-22 14:46 44.18082 10.27923 30230 ft 528 kts 104°
2026-04-22 14:47 44.16866 10.34576 30540 ft 529 kts 96°
2026-04-22 14:47 44.16536 10.37942 30710 ft 527 kts 90°
2026-04-22 14:47 44.16359 10.43037 30995 ft 526 kts 86°
2026-04-22 14:47 44.16234 10.48146 31304 ft 528 kts 86°
2026-04-22 14:48 44.16104 10.53202 31617 ft 528 kts 87°
2026-04-22 14:48 44.15968 10.58330 32076 ft 527 kts 86°
2026-04-22 14:48 44.15826 10.63436 32455 ft 527 kts 86°
2026-04-22 14:48 44.15680 10.68540 32867 ft 526 kts 86°
2026-04-22 14:49 44.15530 10.73630 33297 ft 524 kts 86°
2026-04-22 14:49 44.15379 10.78697 33702 ft 522 kts 86°
2026-04-22 14:49 44.15228 10.83747 34004 ft 521 kts 86°
2026-04-22 14:49 44.15079 10.88737 34259 ft 520 kts 86°
2026-04-22 14:50 44.14929 10.93774 34495 ft 519 kts 86°
2026-04-22 14:50 44.14779 10.98799 34735 ft 517 kts 86°
2026-04-22 14:50 44.14625 11.03808 34976 ft 515 kts 86°
2026-04-22 14:50 44.14477 11.08802 35127 ft 513 kts 84°
2026-04-22 14:51 44.14720 11.18600 35164 ft 503 kts 81°
2026-04-22 14:51 44.15031 11.28240 35171 ft 502 kts 81°
2026-04-22 14:52 44.15338 11.37963 35169 ft 503 kts 81°
2026-04-22 14:52 44.15625 11.47733 35176 ft 504 kts 81°
2026-04-22 14:53 44.15739 11.57529 35173 ft 510 kts 88°
2026-04-22 14:53 44.15233 11.67422 35174 ft 511 kts 88°
2026-04-22 14:54 44.14719 11.77302 35204 ft 511 kts 88°
2026-04-22 14:54 44.14202 11.87133 35194 ft 511 kts 88°
2026-04-22 14:55 44.13667 11.97017 35188 ft 511 kts 88°
2026-04-22 14:55 44.13128 12.06909 35208 ft 511 kts 88°
2026-04-22 14:56 44.12584 12.16771 35192 ft 510 kts 89°
2026-04-22 14:56 44.12035 12.26631 35212 ft 511 kts 89°
2026-04-22 14:57 44.11469 12.36506 35211 ft 511 kts 89°
2026-04-22 14:57 44.10894 12.46329 35208 ft 511 kts 89°
2026-04-22 14:58 44.10313 12.56184 35192 ft 511 kts 89°
2026-04-22 14:58 44.09722 12.66048 35187 ft 511 kts 89°
2026-04-22 14:59 44.09123 12.75924 35188 ft 511 kts 89°
2026-04-22 14:59 44.08519 12.85711 35206 ft 510 kts 90°
2026-04-22 15:00 44.07905 12.95529 35200 ft 508 kts 90°
2026-04-22 15:00 44.07288 13.05325 35200 ft 507 kts 90°
2026-04-22 15:01 44.06664 13.15097 35220 ft 507 kts 90°
2026-04-22 15:01 44.06025 13.24850 35158 ft 505 kts 90°
2026-04-22 15:02 44.05390 13.34593 35171 ft 505 kts 90°
2026-04-22 15:02 44.04755 13.44321 35174 ft 505 kts 90°
2026-04-22 15:03 44.04129 13.53991 35187 ft 505 kts 90°
2026-04-22 15:03 44.03507 13.63725 35182 ft 505 kts 91°
2026-04-22 15:04 44.02786 13.73441 35180 ft 504 kts 92°
2026-04-22 15:04 44.02059 13.83127 35148 ft 503 kts 91°
2026-04-22 15:05 44.00821 13.92639 35148 ft 506 kts 106°
2026-04-22 15:05 43.97886 14.01532 35150 ft 508 kts 116°
2026-04-22 15:06 43.94584 14.10217 35147 ft 508 kts 116°
2026-04-22 15:06 43.91282 14.18905 35147 ft 509 kts 116°
2026-04-22 15:07 43.87974 14.27593 35155 ft 509 kts 117°
2026-04-22 15:07 43.84651 14.36266 35149 ft 509 kts 117°
2026-04-22 15:08 43.81317 14.44928 35149 ft 509 kts 117°
2026-04-22 15:08 43.78001 14.53543 35141 ft 509 kts 117°
2026-04-22 15:09 43.74669 14.62205 35141 ft 510 kts 117°
2026-04-22 15:09 43.71308 14.70864 35137 ft 510 kts 117°
2026-04-22 15:10 43.67951 14.79509 35138 ft 510 kts 117°
2026-04-22 15:10 43.64583 14.88157 35141 ft 510 kts 117°
2026-04-22 15:11 43.61349 14.96403 35133 ft 509 kts 118°
2026-04-22 15:11 43.58004 15.04911 35131 ft 509 kts 118°
2026-04-22 15:12 43.54622 15.13498 35121 ft 509 kts 118°
2026-04-22 15:12 43.51238 15.22088 35109 ft 509 kts 118°
2026-04-22 15:13 43.47858 15.30650 35125 ft 509 kts 118°
2026-04-22 15:13 43.44454 15.39214 35110 ft 509 kts 118°
2026-04-22 15:14 43.41052 15.47765 35106 ft 509 kts 118°
2026-04-22 15:14 43.37634 15.56325 35100 ft 509 kts 118°
2026-04-22 15:15 43.34218 15.64861 35114 ft 509 kts 118°
2026-04-22 15:15 43.30806 15.73330 35081 ft 510 kts 119°
2026-04-22 15:16 43.27927 15.80470 35076 ft 510 kts 119°
2026-04-22 15:16 43.24487 15.89001 35078 ft 510 kts 119°
2026-04-22 15:17 43.21037 15.97531 35068 ft 511 kts 119°
2026-04-22 15:17 43.17581 16.06029 35084 ft 510 kts 119°
2026-04-22 15:18 43.14138 16.14463 35080 ft 509 kts 119°
2026-04-22 15:18 43.10676 16.22927 35069 ft 509 kts 119°
2026-04-22 15:19 43.07207 16.31394 35069 ft 508 kts 119°
2026-04-22 15:19 43.03739 16.39840 35058 ft 508 kts 120°
2026-04-22 15:20 43.00265 16.48268 35030 ft 509 kts 120°
2026-04-22 15:20 42.96774 16.56708 35029 ft 510 kts 120°
2026-04-22 15:21 42.93290 16.65102 35030 ft 510 kts 120°
2026-04-22 15:21 42.89789 16.73529 35056 ft 510 kts 120°
2026-04-22 15:22 42.86271 16.81964 35053 ft 510 kts 120°
2026-04-22 15:22 42.82752 16.90361 35050 ft 510 kts 120°
2026-04-22 15:23 42.79227 16.98751 35051 ft 510 kts 120°
2026-04-22 15:23 42.75723 17.07086 35055 ft 510 kts 120°
2026-04-22 15:24 42.72247 17.15337 35024 ft 510 kts 121°
2026-04-22 15:24 42.68709 17.23715 35015 ft 511 kts 121°
2026-04-22 15:25 42.65146 17.32116 35021 ft 512 kts 121°
2026-04-22 15:25 42.61575 17.40507 35034 ft 513 kts 121°
2026-04-22 15:26 42.57983 17.48899 35035 ft 514 kts 121°
2026-04-22 15:26 42.54409 17.57245 35041 ft 514 kts 121°
2026-04-22 15:27 42.50816 17.65618 35035 ft 514 kts 121°
2026-04-22 15:27 42.47203 17.73998 35010 ft 515 kts 121°
2026-04-22 15:28 42.43578 17.82400 35000 ft 517 kts 121°
2026-04-22 15:28 42.39941 17.90815 34971 ft 519 kts 122°
2026-04-22 15:29 42.36283 17.99243 34847 ft 515 kts 122°
2026-04-22 15:29 42.34477 18.03403 34486 ft 510 kts 122°
2026-04-22 15:30 42.30926 18.11560 33601 ft 503 kts 122°
2026-04-22 15:30 42.29144 18.15632 33087 ft 501 kts 122°
2026-04-22 15:30 42.27374 18.19667 32574 ft 498 kts 122°
2026-04-22 15:30 42.25606 18.23695 32068 ft 496 kts 122°
2026-04-22 15:31 42.23848 18.27698 31574 ft 494 kts 122°
2026-04-22 15:31 42.22096 18.31689 31078 ft 491 kts 122°
2026-04-22 15:31 42.20357 18.35646 30618 ft 489 kts 122°
2026-04-22 15:31 42.18637 18.39552 29864 ft 494 kts 122°
2026-04-22 15:32 42.16863 18.43571 28759 ft 504 kts 122°
2026-04-22 15:32 42.15045 18.47682 27581 ft 515 kts 122°
2026-04-22 15:32 42.13203 18.51846 26819 ft 515 kts 122°
2026-04-22 15:32 42.11376 18.55972 26231 ft 511 kts 122°
2026-04-22 15:33 42.09554 18.60083 25617 ft 507 kts 123°
2026-04-22 15:33 42.07740 18.64170 24885 ft 508 kts 123°
2026-04-22 15:33 42.05910 18.68286 23824 ft 517 kts 123°
2026-04-22 15:33 42.04050 18.72458 22969 ft 517 kts 123°
2026-04-22 15:34 42.02238 18.76519 22324 ft 512 kts 123°
2026-04-22 15:34 42.00423 18.80596 21722 ft 504 kts 123°
2026-04-22 15:34 41.98625 18.84628 21119 ft 497 kts 123°
2026-04-22 15:34 41.96856 18.88590 20515 ft 491 kts 124°
2026-04-22 15:35 41.95695 18.91186 20022 ft 485 kts 124°
2026-04-22 15:35 41.93384 18.96329 18998 ft 474 kts 124°
2026-04-22 15:35 41.91706 19.00053 18283 ft 466 kts 124°
2026-04-22 15:35 41.90041 19.03749 17508 ft 458 kts 124°
2026-04-22 15:36 41.88383 19.07426 16785 ft 449 kts 123°
2026-04-22 15:36 41.86781 19.10975 16124 ft 441 kts 123°
2026-04-22 15:36 41.85204 19.14458 15479 ft 432 kts 122°
2026-04-22 15:36 41.83672 19.17841 14942 ft 422 kts 122°
2026-04-22 15:37 41.82197 19.21100 14775 ft 396 kts 122°
2026-04-22 15:37 41.80787 19.24208 14198 ft 386 kts 121°
2026-04-22 15:37 41.79389 19.27281 13476 ft 382 kts 121°
2026-04-22 15:37 41.78038 19.30253 13180 ft 363 kts 121°
2026-04-22 15:38 41.76584 19.32895 12851 ft 344 kts 130°
2026-04-22 15:38 41.73492 19.37832 11190 ft 344 kts 129°
2026-04-22 15:38 41.71958 19.40276 10487 ft 339 kts 129°
2026-04-22 15:39 41.70450 19.42680 9846 ft 334 kts 129°
2026-04-22 15:39 41.68991 19.45003 9565 ft 315 kts 129°
2026-04-22 15:39 41.67620 19.47185 9258 ft 298 kts 129°
2026-04-22 15:39 41.66296 19.49295 8700 ft 294 kts 129°
2026-04-22 15:40 41.65063 19.51391 8476 ft 276 kts 120°
2026-04-22 15:40 41.64275 19.53648 8186 ft 262 kts 104°
2026-04-22 15:40 41.63953 19.55996 7637 ft 256 kts 89°
2026-04-22 15:40 41.64063 19.58324 7175 ft 248 kts 81°
2026-04-22 15:41 41.64251 19.60540 6914 ft 235 kts 82°
2026-04-22 15:41 41.64416 19.62705 6463 ft 232 kts 82°
2026-04-22 15:41 41.64243 19.64831 6057 ft 233 kts 115°
2026-04-22 15:41 41.63153 19.66366 5788 ft 230 kts 151°
2026-04-22 15:42 41.61643 19.66975 5562 ft 228 kts 179°
2026-04-22 15:42 41.60107 19.66618 5335 ft 223 kts 206°
2026-04-22 15:42 41.58896 19.65385 5097 ft 217 kts 236°
2026-04-22 15:42 41.58272 19.63593 4886 ft 213 kts 262°
2026-04-22 15:43 41.58341 19.61663 4649 ft 206 kts 289°
2026-04-22 15:43 41.59036 19.60012 4416 ft 204 kts 314°
2026-04-22 15:43 41.60195 19.58957 4186 ft 204 kts 339°
2026-04-22 15:43 41.61576 19.58700 4037 ft 204 kts
2026-04-22 15:44 41.62916 19.59333 3999 ft 209 kts 34°
2026-04-22 15:44 41.63835 19.60841 4003 ft 214 kts 66°
2026-04-22 15:44 41.64152 19.62808 4021 ft 218 kts 79°
2026-04-22 15:44 41.64376 19.64721 4020 ft 196 kts 78°
2026-04-22 15:45 41.63440 19.68830 4001 ft 174 kts 148°
2026-04-22 15:45 41.62279 19.69202 3999 ft 174 kts 193°
2026-04-22 15:46 41.61271 19.68448 4008 ft 165 kts 236°
2026-04-22 15:46 41.60979 19.67041 4007 ft 158 kts 285°
2026-04-22 15:46 41.61516 19.65817 4032 ft 155 kts 321°
2026-04-22 15:46 41.62520 19.65411 4009 ft 155 kts
2026-04-22 15:47 41.63423 19.66169 4002 ft 161 kts 55°
2026-04-22 15:47 41.63639 19.67649 4009 ft 171 kts 101°
2026-04-22 15:47 41.63020 19.68988 4021 ft 172 kts 141°
2026-04-22 15:47 41.61917 19.69472 4005 ft 169 kts 188°
2026-04-22 15:48 41.60901 19.68796 4002 ft 164 kts 234°
2026-04-22 15:48 41.60570 19.67456 4008 ft 159 kts 279°
2026-04-22 15:48 41.61076 19.66207 4010 ft 156 kts 325°
2026-04-22 15:48 41.62102 19.65886 4009 ft 157 kts 11°
2026-04-22 15:49 41.62979 19.66695 4003 ft 162 kts 57°
2026-04-22 15:49 41.63156 19.68188 4016 ft 172 kts 103°
2026-04-22 15:49 41.62480 19.69481 4008 ft 175 kts 149°
2026-04-22 15:49 41.61444 19.69821 4003 ft 170 kts 190°
2026-04-22 15:50 41.60447 19.69098 4002 ft 163 kts 240°
2026-04-22 15:50 41.60169 19.67715 4010 ft 154 kts 285°
2026-04-22 15:50 41.60736 19.66584 4016 ft 149 kts 332°
2026-04-22 15:50 41.61751 19.66445 4015 ft 154 kts 18°
2026-04-22 15:51 41.62606 19.67340 4007 ft 163 kts 57°
2026-04-22 15:51 41.62802 19.68815 4010 ft 170 kts 102°
2026-04-22 15:51 41.62144 19.70107 4002 ft 173 kts 148°
2026-04-22 15:51 41.60998 19.70501 4026 ft 172 kts 185°
2026-04-22 15:52 41.59826 19.70305 3862 ft 169 kts 194°
2026-04-22 15:52 41.58661 19.70001 3613 ft 172 kts 194°
2026-04-22 15:52 41.57523 19.69715 3361 ft 171 kts 184°
2026-04-22 15:52 41.56320 19.69798 3119 ft 172 kts 174°
2026-04-22 15:53 41.55146 19.70003 2864 ft 174 kts 173°
2026-04-22 15:53 41.53918 19.70224 2529 ft 176 kts 173°
2026-04-22 15:53 41.52692 19.70431 2207 ft 179 kts 174°
2026-04-22 15:53 41.51446 19.70629 1905 ft 180 kts 176°
2026-04-22 15:54 41.50234 19.70818 1666 ft 174 kts 176°
2026-04-22 15:54 41.49046 19.70996 1497 ft 169 kts 177°
2026-04-22 15:54 41.47868 19.71161 1529 ft 170 kts 181°
2026-04-22 15:54 41.46781 19.70743 1510 ft 162 kts 217°
2026-04-22 15:55 41.45873 19.69891 1528 ft 161 kts 225°
2026-04-22 15:55 41.44991 19.68968 1530 ft 161 kts 225°
2026-04-22 15:55 41.44109 19.68059 1502 ft 162 kts 218°
2026-04-22 15:55 41.42993 19.67722 1503 ft 170 kts 184°
2026-04-22 15:56 41.41810 19.67821 1493 ft 170 kts 179°
2026-04-22 15:56 41.40637 19.67982 1488 ft 169 kts 177°
2026-04-22 15:56 41.39459 19.68151 1482 ft 170 kts 177°
2026-04-22 15:56 41.38283 19.68321 1500 ft 170 kts 177°
2026-04-22 15:57 41.37118 19.68489 1502 ft 171 kts 177°
2026-04-22 15:57 41.35981 19.68703 1497 ft 171 kts 165°
2026-04-22 15:57 41.35073 19.69680 1478 ft 173 kts 115°
2026-04-22 15:57 41.35013 19.71179 1324 ft 157 kts 60°
2026-04-22 15:58 41.35719 19.72083 1228 ft 138 kts 25°
2026-04-22 15:58 41.36596 19.72536 1033 ft 136 kts
2026-04-22 15:58 41.37528 19.72604 827 ft 134 kts 351°
2026-04-22 15:58 41.38446 19.72452 607 ft 133 kts 349°
2026-04-22 15:59 41.39365 19.72339 374 ft 137 kts 349°
2026-04-22 15:59 41.40316 19.72212 178 ft 138 kts 347°
2026-04-22 15:59 41.41182 19.72095 126 ft 105 kts 355°
2026-04-22 15:59 41.41744 19.72020 125 ft 63 kts 354°
2026-04-22 16:00 41.42140 19.71968 121 ft 54 kts 354°
2026-04-22 16:00 41.42476 19.71922 118 ft 33 kts 354°
2026-04-22 16:00 41.42630 19.71902 115 ft 11 kts 354°
2026-04-22 16:00 41.42678 19.71852 117 ft 10 kts 282°
2026-04-22 16:01 41.42678 19.71754 118 ft 12 kts 270°
2026-04-22 16:01 41.42672 19.71639 118 ft 13 kts 264°
2026-04-22 16:01 41.42664 19.71535 117 ft 9 kts 264°
2026-04-22 16:01 41.42619 19.71490 116 ft 10 kts 180°
2026-04-22 16:02 41.42547 19.71499 117 ft 11 kts 175°
2026-04-22 16:02 41.42466 19.71510 114 ft 12 kts 174°
2026-04-22 16:02 41.42391 19.71520 120 ft 10 kts 174°
2026-04-22 16:02 41.42319 19.71530 118 ft 11 kts 174°
2026-04-22 16:03 41.42239 19.71541 118 ft 12 kts 174°
2026-04-22 16:03 41.42150 19.71553 120 ft 13 kts 174°
2026-04-22 16:03 41.42055 19.71566 119 ft 13 kts 174°
2026-04-22 16:03 41.42007 19.71571 121 ft 3 kts 180°
2026-04-22 16:04 41.41996 19.71555 119 ft 3 kts 233°
2026-04-22 16:04 41.41989 19.71523 120 ft 3 kts 257°
2026-04-22 16:04 41.41988 19.71513 118 ft 0 kts 266°